Bar Harbor, ME

3:48 PM EDT on October 18, 2019 (GMT -0400)
Hancock County-Bar Harbor

Weather History for KBHB - August, 2019

Change the Weather History Date:

Wednesday, August 7, 2019

  Actual Average Record
Temperature  
Mean Temperature 66 °F -  
Max Temperature 73 °F 78 °F 93 °F (2001)
Min Temperature 60 °F 56 °F 38 °F (1982)
Cooling Degree Days 2    
Growing Degree Days 16 (Base 50)    
Moisture  
Dew Point 63 °F    
Average Humidity 90    
Maximum Humidity 100    
Minimum Humidity 78    
Precipitation  
Precipitation 0.89 in - - ()
Sea Level Pressure  
Sea Level Pressure 29.89 in    
Wind  
Wind Speed 3 mph (SSE)    
Max Wind Speed 13 mph    
Max Gust Speed -    
Visibility 8 miles    
Events Rain , Thunderstorm    
Averages and records for this station are not official NWS values.
T = Trace of Precipitation, MM = Missing Value Source: NWS Daily Summary

Daily Weather History Graph

Daily Weather History Graph

Search for Another Location

Airport or City:

Astronomy

Aug. 07, 2019 Rise Set
Actual Time 5:26 AM EDT 7:50 PM EDT
Civil Twilight 4:54 AM EDT 8:23 PM EDT
Nautical Twilight 4:13 AM EDT 9:03 PM EDT
Astronomical Twilight 3:27 AM EDT 9:49 PM EDT
Moon 1:12 PM EDT (8/7) 11:49 PM EDT (8/7)
Length of Visible Light 15h 29m
Length of Day
14h 24m
Waxing Crescent, 49% of the Moon is Illuminated
Aug 7
Waxing Crescent
Aug 7
First Quarter
Aug 15
Full
Aug 23
Last Quarter
Aug 30
New

Hourly Weather History & Observations

Time (EDT) Temp. Dew Point Humidity Pressure Visibility Wind Dir Wind Speed Gust Speed Precip Events Conditions
12:56 AM 63.0 °F 57.9 °F 84% 29.89 in 10.0 mi Calm Calm - N/A   Overcast
1:56 AM 62.1 °F 57.9 °F 86% 29.88 in 10.0 mi Calm Calm - N/A   Overcast
2:12 AM 62.6 °F 57.2 °F 82% 29.87 in 10.0 mi Calm Calm - N/A   Overcast
2:56 AM 63.0 °F 57.9 °F 84% 29.87 in 10.0 mi Calm Calm - N/A   Overcast
3:56 AM 62.1 °F 57.9 °F 86% 29.87 in 10.0 mi Calm Calm - N/A   Overcast
4:09 AM 62.6 °F 59.0 °F 88% 29.87 in 10.0 mi Calm Calm - N/A   Overcast
4:56 AM 63.0 °F 59.0 °F 87% 29.87 in 10.0 mi Calm Calm - N/A   Overcast
5:56 AM 62.1 °F 60.1 °F 93% 29.89 in 10.0 mi Calm Calm - N/A   Overcast
6:22 AM 60.8 °F 60.8 °F 100% 29.89 in 1.8 mi Calm Calm - N/A   Overcast
6:44 AM 60.8 °F 60.8 °F 100% 29.90 in 1.2 mi SE 3.5 mph - N/A   Overcast
6:56 AM 61.0 °F 60.1 °F 97% 29.91 in 1.2 mi Calm Calm - N/A   Overcast
7:32 AM 60.8 °F 60.8 °F 100% 29.90 in 7.0 mi ENE 3.5 mph - N/A   Overcast
7:56 AM 61.0 °F 61.0 °F 100% 29.91 in 7.0 mi East 5.8 mph - N/A   Overcast
8:50 AM 62.6 °F 60.8 °F 94% 29.90 in 10.0 mi Variable 3.5 mph - N/A   Overcast
8:56 AM 62.1 °F 60.1 °F 93% 29.91 in 10.0 mi East 3.5 mph - N/A   Overcast
9:26 AM 64.4 °F 60.8 °F 88% 29.90 in 10.0 mi Calm Calm - N/A   Overcast
9:56 AM 66.9 °F 62.1 °F 84% 29.90 in 10.0 mi Calm Calm - N/A   Overcast
10:56 AM 69.1 °F 63.0 °F 81% 29.90 in 10.0 mi ESE 6.9 mph - N/A   Overcast
11:56 AM 72.0 °F 66.0 °F 81% 29.89 in 10.0 mi SSE 10.4 mph - N/A   Overcast
12:25 PM 71.6 °F 66.2 °F 83% 29.89 in 10.0 mi SSW 6.9 mph - N/A   Overcast
12:42 PM 71.6 °F 66.2 °F 83% 29.89 in 10.0 mi SSW 6.9 mph - N/A   Overcast
12:56 PM 72.0 °F 66.0 °F 81% 29.90 in 10.0 mi SSW 6.9 mph - N/A   Overcast
1:56 PM 73.9 °F 66.9 °F 79% 29.90 in 10.0 mi SSW 10.4 mph - N/A   Scattered Clouds
2:48 PM 73.4 °F 66.2 °F 78% 29.89 in 10.0 mi SSW 12.7 mph - N/A   Mostly Cloudy
2:56 PM 72.0 °F 66.9 °F 84% 29.89 in 10.0 mi SSW 11.5 mph - N/A   Mostly Cloudy
3:17 PM 71.6 °F 66.2 °F 83% 29.88 in 10.0 mi South 10.4 mph - N/A   Overcast
3:56 PM 73.0 °F 66.9 °F 81% 29.88 in 10.0 mi South 10.4 mph - N/A   Overcast
4:56 PM 71.1 °F 66.0 °F 84% 29.88 in 10.0 mi SSE 9.2 mph - N/A   Overcast
5:36 PM 68.0 °F 66.2 °F 94% 29.88 in 10.0 mi SSE 8.1 mph - N/A   Overcast
5:56 PM 68.0 °F 66.0 °F 93% 29.89 in 10.0 mi SSE 5.8 mph - 0.00 in   Overcast
6:56 PM 68.0 °F 66.0 °F 93% 29.88 in 10.0 mi SSE 6.9 mph - 0.00 in   Overcast
7:56 PM 66.9 °F 64.9 °F 93% 29.89 in 10.0 mi ESE 3.5 mph - N/A   Overcast
8:56 PM 66.9 °F 64.9 °F 93% 29.90 in 4.0 mi South 6.9 mph - 0.08 in Rain Heavy Rain
9:05 PM 66.2 °F 64.4 °F 94% - 7.0 mi North - - 0.02 in Rain , Thunderstorm Heavy Thunderstorms and Rain
9:42 PM 66.2 °F 64.4 °F 94% 29.90 in 3.0 mi SSW 8.1 mph - 0.21 in Rain Heavy Rain
9:51 PM 66.2 °F 64.4 °F 94% 29.89 in 2.5 mi South 9.2 mph - 0.26 in Rain , Thunderstorm Heavy Rain
9:56 PM 66.0 °F 64.9 °F 96% 29.89 in 2.5 mi South 9.2 mph - 0.29 in Rain , Thunderstorm Heavy Rain
9:58 PM 66.2 °F 64.4 °F 94% 29.89 in 3.0 mi South 9.2 mph - 0.01 in Rain , Thunderstorm Rain
10:10 PM 66.2 °F 66.2 °F 100% 29.89 in 8.0 mi South 11.5 mph - 0.08 in   Overcast
10:56 PM 66.9 °F 64.9 °F 93% 29.88 in 10.0 mi South 9.2 mph - 0.28 in   Overcast
11:20 PM 66.2 °F 66.2 °F 100% 29.87 in 9.0 mi SSE 5.8 mph - 0.10 in   Overcast
11:56 PM 66.0 °F 64.9 °F 96% 29.87 in 9.0 mi SE 4.6 mph - 0.24 in   Overcast